Location: Gälforsberget
(66.6500°N, 22.4167°E)
Time: 01:36:02
(UTC+00:00)

Cosmos 2360 - Pass Details

Date: 11 April 2026
Orbit: 846 x 856 km, 70.7° (Epoch: 20 May)

Event Time Altitude Azimuth Distance (km) Brightness Sun altitude
Rises 21:17:56 0° 303° (WNW) 3,420 8.2 -13.6°
Reaches altitude 10° 21:20:23 10° 303° (WNW) 2,483 7.4 -13.7°
Maximum altitude 21:26:06 89° 30° (NNE) 858 4.2 -13.8°
Enters shadow 21:31:29 12° 125° (SE) 2,351 6.1 -14.0°
